[[{"header":{"parameterUnit":"m.s-1","parameterCategory":2,"la1":30.2991,"la2":30.254,"lo1":-89.0895,"lo2":-89.0444,"dy":0.0017,"dx":0.0017,"nx":28,"ny":28,"refTime":"2025-12-24T03:00:00:Z","depth":"0","parameterNumber":2,"parameterNumberName":"U-component_of_CURRENTS"},"data":[0,0,0,0,0,0,0,0,0,0,0,0,0,0,0,0,0,0,0,0,0,0,0,0,0,0,0,0,0,0,0,0,0,0,0,0,0,0,0,0,0,0,0,0,0,0,0,0,0,0,0,0,0,0,0,0,0,0,-0.2172,-0.2173,0,-0.2176,-0.2176,-0.2176,-0.2138,-0.2137,-0.2137,-0.2136,-0.206,-0.2058,-0.2057,0,0,0,0,0,0,0,0,0,0,0,0,0,-0.2116,-0.2117,-0.2172,-0.2173,-0.2173,-0.2176,-0.2176,-0.2176,-0.2138,-0.2137,-0.2137,-0.2136,-0.206,-0.2059,-0.2057,0,0,0,0,0,0,0,0,0,0,0,0,0,-0.2129,-0.2117,-0.2172,-0.2158,-0.2157,-0.2176,-0.2176,-0.2175,-0.2138,-0.2137,-0.2136,-0.2135,-0.2061,-0.2059,-0.2057,-0.2064,0,0,-0.205,-0.2049,0,0,0,0,0,0,0,0,-0.2128,-0.213,-0.2159,-0.2159,-0.2158,-0.2159,-0.2128,-0.2136,-0.2139,-0.2141,-0.2136,-0.2135,-0.2089,-0.2084,-0.2083,-0.2061,-0.2057,-0.205,-0.2049,-0.2048,-0.2047,0,0,0,0,0,0,0,-0.2127,-0.213,-0.217,-0.216,-0.2159,-0.2146,-0.2146,-0.2129,-0.2116,-0.2141,-0.2139,-0.2146,-0.2087,-0.2085,-0.2081,-0.2056,-0.205,-0.2048,-0.2047,-0.2046,-0.2023,-0.2024,0,0,0,0,0,0,-0.2137,-0.2129,-0.217,-0.217,-0.2144,-0.2148,-0.2148,-0.2156,-0.2118,-0.2113,-0.2147,-0.2144,-0.2089,-0.2083,-0.2078,-0.2085,-0.2048,-0.2046,-0.2045,-0.2022,-0.2023,-0.2024,0,0,0,0,0,0,-0.2136,-0.214,-0.217,-0.2153,-0.2156,-0.215,-0.216,-0.2157,-0.2157,-0.2124,-0.2117,-0.215,-0.2088,-0.2081,-0.2067,-0.2082,-0.2045,-0.2043,-0.2022,-0.2023,-0.2023,-0.21,0,0,0,0,0,0,-0.2134,-0.214,-0.2146,-0.2154,-0.2157,-0.2189,-0.2161,-0.2158,-0.2164,-0.2161,-0.2124,-0.2116,-0.2087,-0.207,-0.2065,-0.2078,-0.2041,-0.2021,-0.2022,-0.2023,-0.2096,-0.2103,-0.2109,0,0,0,0,0,-0.2132,-0.2149,-0.2146,-0.2151,-0.2167,-0.2191,-0.2191,-0.2181,-0.2166,-0.2174,-0.2146,-0.2117,-0.2073,-0.2069,-0.2063,-0.2076,-0.202,-0.2022,-0.2023,-0.2094,-0.2102,-0.2109,0,0,0,0,0,0,-0.2136,-0.2148,-0.2144,-0.2166,-0.2181,-0.2186,-0.2193,-0.2188,-0.2175,-0.2164,-0.2128,-0.2118,-0.211,-0.2084,-0.2081,-0.2072,-0.2042,-0.2042,-0.2097,-0.2105,-0.2111,-0.2115,-0.204,0,0,0,0,0,-0.214,-0.2148,-0.2166,-0.2183,-0.2191,-0.2193,-0.22,-0.2196,-0.219,-0.2182,-0.2158,-0.213,-0.2113,-0.2102,-0.208,-0.2079,-0.2069,-0.2082,-0.2088,-0.2094,-0.2092,-0.2096,-0.2103,-0.2029,-0.2029,-0.2028,0,0,-0.215,-0.2155,-0.2162,-0.2183,-0.2189,-0.2212,-0.2193,-0.221,-0.2224,-0.2176,-0.2176,-0.2151,-0.2117,-0.2114,-0.2108,-0.2094,-0.2114,-0.2096,-0.2101,-0.2096,-0.2099,-0.2106,-0.2113,-0.2029,-0.2029,-0.2029,0,0,-0.2174,-0.2176,-0.2192,-0.2207,-0.2223,-0.2227,-0.2236,-0.2245,-0.224,-0.2246,-0.2213,-0.2199,-0.2174,-0.2156,-0.2143,-0.2171,-0.2148,-0.2163,-0.2199,-0.2204,-0.221,-0.2216,-0.2235,-0.2241,-0.2167,-0.2167,-0.2167,0,-0.2189,-0.2204,-0.2203,-0.2226,-0.224,-0.2238,-0.2265,-0.227,-0.2271,-0.2273,-0.2253,-0.2228,-0.2195,-0.2199,-0.22,-0.2186,-0.2188,-0.2175,-0.2214,-0.2218,-0.2223,-0.224,-0.2247,-0.2171,-0.217,-0.217,-0.217,0,-0.2221,-0.2238,-0.2252,-0.2274,-0.2292,-0.2314,-0.2327,-0.2336,-0.2328,-0.233,-0.2332,-0.2296,-0.2278,-0.2272,-0.2239,-0.2255,-0.2249,-0.2223,-0.2198,-0.2235,-0.2251,-0.2257,-0.2176,-0.2175,-0.2174,-0.2173,0,0,-0.2249,-0.227,-0.2275,-0.2288,-0.2315,-0.2335,-0.2362,-0.2386,-0.2404,-0.2399,-0.242,-0.2387,-0.2364,-0.2347,-0.2315,-0.2316,-0.2346,-0.2281,-0.228,-0.2307,-0.2373,-0.2279,-0.2275,-0.233,-0.2331,-0.2332,-0.2381,0,-0.2277,-0.231,-0.2319,-0.2361,-0.2382,-0.2393,-0.2422,-0.2442,-0.2447,-0.2466,-0.2445,-0.2443,-0.2396,-0.2384,-0.2381,-0.2346,-0.2359,-0.2335,-0.2325,-0.2325,-0.2243,-0.2277,-0.2111,-0.2132,-0.2386,-0.2386,-0.2387,0,-0.2305,-0.232,-0.2353,-0.2393,-0.2406,-0.2431,-0.2468,-0.2494,-0.2522,-0.2526,-0.2529,-0.251,-0.2502,-0.2457,-0.2442,-0.243,-0.2405,-0.2388,-0.2389,-0.2272,-0.2239,-0.213,-0.2131,-0.2081,-0.2394,-0.2394,-0.2393,0,-0.2301,-0.2349,-0.2365,-0.2379,-0.2424,-0.2442,-0.2468,-0.2504,-0.2528,-0.2557,-0.2572,-0.2571,-0.2557,-0.2538,-0.2483,-0.2465,-0.2476,-0.2447,-0.2355,-0.235,-0.2189,-0.2166,-0.2138,-0.2452,-0.2452,-0.2451,-0.2451,0,-0.232,-0.2342,-0.2361,-0.2371,-0.2409,-0.244,-0.2484,-0.2513,-0.2554,-0.258,-0.2588,-0.26,-0.2571,-0.2566,-0.2524,-0.2451,-0.2509,-0.2366,-0.2351,-0.2211,-0.2192,-0.2122,-0.2141,-0.2453,-0.2453,-0.2453,-0.2452,0,-0.2316,-0.2328,-0.2352,-0.2387,-0.2404,-0.2426,-0.249,-0.2518,-0.2558,-0.2592,-0.2599,-0.2624,-0.2607,-0.2592,-0.2564,-0.2483,-0.2379,-0.2408,-0.225,-0.2214,-0.2037,-0.2067,-0.205,-0.2003,-0.2303,-0.2301,-0.2299,0,-0.2319,-0.2318,-0.2347,-0.2357,-0.2371,-0.2412,-0.2442,-0.2506,-0.2534,-0.2594,-0.2603,-0.2616,-0.2587,-0.2531,-0.2411,-0.2338,-0.2334,-0.2143,-0.2058,-0.2006,-0.2031,-0.2066,-0.2031,-0.1897,-0.1892,-0.1888,-0.1885,0,-0.2309,-0.2302,-0.2307,-0.232,-0.2345,-0.2393,-0.2436,-0.2459,-0.2521,-0.2543,-0.2558,-0.2542,-0.247,-0.2286,-0.2182,-0.2119,-0.205,-0.2055,-0.2035,-0.1735,-0.1738,-0.169,-0.1917,-0.1849,-0.1852,-0.1855,-0.1857,-0.1858,-0.2282,-0.227,-0.2253,-0.2261,-0.2304,-0.2335,-0.2316,-0.2358,-0.2378,-0.2318,-0.2409,-0.2273,-0.2129,-0.1935,-0.1892,-0.1684,-0.1809,-0.1575,-0.1629,-0.1682,-0.158,-0.1732,-0.1619,-0.1621,-0.1623,-0.1624,-0.1626,0,-0.2235,-0.2201,-0.2197,-0.2192,-0.2198,-0.2249,-0.2274,-0.2195,-0.2142,-0.2094,-0.2035,-0.1816,-0.162,-0.1529,-0.1329,-0.1245,-0.1243,-0.124,-0.1245,-0.124,-0.1376,-0.1294,-0.1062,-0.1062,-0.1062,-0.1062,-0.1062,-0.1062,-0.22,-0.215,-0.2125,-0.2075,-0.2071,-0.2025,-0.2001,-0.1873,-0.1784,-0.1556,-0.1395,-0.1333,-0.1266,-0.1217,-0.1066,-0.1018,-0.1032,-0.0993,-0.1097,-0.1169,-0.1205,-0.1238,-0.1163,-0.0907,-0.0907,-0.086,-0.086,-0.086]},{"header":{"parameterUnit":"m.s-1","parameterCategory":2,"la1":30.2991,"la2":30.254,"lo1":-89.0895,"lo2":-89.0444,"dy":0.0017,"dx":0.0017,"nx":28,"ny":28,"refTime":"2025-12-24T03:00:00:Z","depth":"0","parameterNumber":3,"parameterNumberName":"V-component_of_CURRENTS"},"data":[0,0,0,0,0,0,0,0,0,0,0,0,0,0,0,0,0,0,0,0,0,0,0,0,0,0,0,0,0,0,0,0,0,0,0,0,0,0,0,0,0,0,0,0,0,0,0,0,0,0,0,0,0,0,0,0,0,0,-0.0434,-0.0433,0,-0.0348,-0.0347,-0.0346,-0.03,-0.03,-0.03,-0.03,-0.0158,-0.0154,-0.0151,0,0,0,0,0,0,0,0,0,0,0,0,0,-0.0509,-0.0508,-0.0434,-0.0433,-0.0432,-0.0348,-0.0347,-0.0346,-0.03,-0.03,-0.03,-0.03,-0.0159,-0.0155,-0.015,0,0,0,0,0,0,0,0,0,0,0,0,0,-0.0455,-0.0508,-0.0434,-0.0399,-0.0395,-0.0348,-0.0347,-0.0345,-0.03,-0.03,-0.03,-0.03,-0.0161,-0.0155,-0.015,-0.0116,0,0,-0.0133,-0.013,0,0,0,0,0,0,0,0,-0.0458,-0.0452,-0.0405,-0.0402,-0.0397,-0.0335,-0.0321,-0.0266,-0.03,-0.0336,-0.03,-0.03,-0.0212,-0.0202,-0.0187,-0.011,-0.0104,-0.0132,-0.0129,-0.0126,-0.0125,0,0,0,0,0,0,0,-0.0462,-0.0455,-0.0399,-0.0404,-0.0399,-0.0371,-0.0364,-0.031,-0.0274,-0.0333,-0.0329,-0.032,-0.021,-0.0192,-0.0183,-0.0102,-0.0132,-0.0127,-0.0124,-0.0122,0.0035,0.0036,0,0,0,0,0,0,-0.0476,-0.0459,-0.0402,-0.0397,-0.0428,-0.037,-0.0362,-0.0355,-0.0276,-0.0264,-0.0321,-0.0319,-0.0202,-0.0189,-0.0178,-0.0119,-0.0126,-0.0121,-0.0118,0.0034,0.0035,0.0036,0,0,0,0,0,0,-0.0478,-0.0471,-0.0405,-0.0426,-0.0416,-0.0369,-0.0361,-0.0353,-0.0338,-0.0267,-0.0255,-0.0315,-0.0201,-0.0185,-0.0135,-0.0114,-0.0118,-0.0113,0.0033,0.0035,0.0036,-0.0012,0,0,0,0,0,0,-0.048,-0.0473,-0.0473,-0.0427,-0.0415,-0.0381,-0.0361,-0.0351,-0.0333,-0.0329,-0.0258,-0.0245,-0.02,-0.0144,-0.013,-0.0106,-0.0109,0.0032,0.0034,0.0035,-0.0011,-0.0012,-0.0013,0,0,0,0,0,-0.0483,-0.0486,-0.0474,-0.0467,-0.0417,-0.0381,-0.0373,-0.0339,-0.0333,-0.0326,-0.0281,-0.0247,-0.0124,-0.0139,-0.0123,-0.0097,0.0032,0.0034,0.0035,-0.0011,-0.0012,-0.0013,0,0,0,0,0,0,-0.0517,-0.048,-0.0466,-0.0457,-0.0423,-0.0374,-0.0366,-0.0345,-0.0305,-0.0303,-0.0242,-0.0225,-0.0171,-0.0129,-0.0148,-0.0047,-0.0038,-0.0033,-0.0078,-0.0079,-0.008,-0.009,-0.0104,0,0,0,0,0,-0.0526,-0.0519,-0.0476,-0.0468,-0.0456,-0.0413,-0.0396,-0.0373,-0.0332,-0.0315,-0.0263,-0.0205,-0.0149,-0.0114,-0.0062,-0.0008,0.0002,0.0022,0.0021,0.0019,0.0023,0.0051,0.0053,0.0042,0.0042,0.0042,0,0,-0.0536,-0.0516,-0.051,-0.0475,-0.0449,-0.0426,-0.0403,-0.038,-0.0355,-0.0304,-0.0257,-0.021,-0.0139,-0.0081,-0.0051,-0.0043,0.0022,0.0022,0.002,0.0025,0.0053,0.0054,0.0055,0.0043,0.0043,0.0043,0,0,-0.0552,-0.0536,-0.0534,-0.0508,-0.0473,-0.0443,-0.0441,-0.0392,-0.0366,-0.0319,-0.0274,-0.0219,-0.0135,-0.0076,-0.0037,-0.001,0.0009,0.001,0.0006,0.0033,0.0033,0.0034,0.0014,0.0013,0.0016,0.0016,0.0016,0,-0.0566,-0.0557,-0.0527,-0.0514,-0.0498,-0.0455,-0.0445,-0.0406,-0.0345,-0.0321,-0.031,-0.0189,-0.0129,-0.0052,-0.0038,-0.0011,-0.0015,0.0,0.0029,0.003,0.0031,0.0011,0.0011,0.0014,0.0014,0.0015,0.0015,0,-0.0573,-0.0566,-0.0564,-0.0534,-0.0509,-0.0497,-0.0443,-0.0413,-0.0381,-0.0338,-0.027,-0.0194,-0.0124,-0.0089,-0.005,0.0003,-0.0014,0.0013,0.0023,0.0029,0.0007,0.0008,0.0011,0.0012,0.0013,0.0013,0,0,-0.061,-0.0578,-0.0578,-0.0576,-0.0524,-0.0511,-0.0464,-0.0415,-0.0398,-0.0324,-0.0296,-0.018,-0.015,-0.0103,-0.0047,-0.0007,-0.0003,0.0006,0.0009,-0.003,0.0012,0.0116,0.0126,0.0021,0.0021,0.0022,-0.0021,0,-0.063,-0.0632,-0.0596,-0.0591,-0.0591,-0.0534,-0.05,-0.0447,-0.0398,-0.0359,-0.0269,-0.0221,-0.0152,-0.0131,-0.0075,-0.0024,0.0002,0.0004,0.0028,0.0028,0.0108,0.0134,0.018,0.0157,-0.002,-0.002,-0.002,0,-0.0651,-0.0654,-0.066,-0.064,-0.0634,-0.0615,-0.0574,-0.0535,-0.0455,-0.0419,-0.0346,-0.0289,-0.0207,-0.0163,-0.0067,-0.0076,-0.0034,0.0006,0.0006,0.0127,0.0136,0.0133,0.0165,0.0268,-0.0019,-0.0019,-0.0019,0,-0.0716,-0.07,-0.0716,-0.0706,-0.0668,-0.0657,-0.0631,-0.0559,-0.054,-0.0466,-0.0461,-0.0348,-0.0321,-0.0228,-0.0112,-0.0108,-0.0027,-0.0016,0.0112,0.0116,0.0177,0.0188,0.0308,0.0044,0.0044,0.0044,0.0045,0,-0.0759,-0.077,-0.0754,-0.0764,-0.0786,-0.0726,-0.0729,-0.0682,-0.063,-0.0629,-0.0508,-0.0493,-0.0335,-0.0257,-0.0152,-0.0006,-0.0058,0.0118,0.0132,0.0161,0.0171,0.0283,0.0319,0.0043,0.0043,0.0043,0.0044,0,-0.0823,-0.0808,-0.0834,-0.0819,-0.082,-0.0836,-0.0813,-0.0815,-0.0752,-0.0753,-0.0741,-0.0623,-0.0493,-0.0324,-0.0184,-0.0065,0.0148,0.0127,0.0138,0.0159,0.0406,0.0437,0.0567,0.064,0.0247,0.0249,0.0252,0,-0.0852,-0.0874,-0.0897,-0.0932,-0.093,-0.0943,-0.0956,-0.0889,-0.0893,-0.0836,-0.0854,-0.072,-0.0593,-0.0322,-0.0072,0.0153,0.0235,0.0299,0.0358,0.0448,0.0489,0.0501,0.0552,0.0377,0.038,0.0382,0.0384,0,-0.0914,-0.0926,-0.0952,-0.1037,-0.1071,-0.1098,-0.1108,-0.1127,-0.1061,-0.1029,-0.0974,-0.086,-0.0546,-0.0222,0.0117,0.0248,0.0406,0.036,0.0453,0.0624,0.0642,0.0708,0.0333,0.0407,0.0405,0.0403,0.0402,0.0401,-0.0962,-0.1007,-0.1063,-0.1145,-0.1194,-0.1249,-0.1263,-0.1249,-0.1232,-0.1129,-0.104,-0.0756,-0.0337,0.0191,0.0323,0.065,0.0609,0.0742,0.0765,0.0763,0.0885,0.0566,0.0679,0.0678,0.0677,0.0677,0.0677,0,-0.1033,-0.1088,-0.1172,-0.1262,-0.1346,-0.1339,-0.1364,-0.1334,-0.1301,-0.1083,-0.0928,-0.0347,0.0071,0.0448,0.0876,0.1032,0.1038,0.1096,0.1098,0.1128,0.0839,0.0903,0.1074,0.1074,0.1074,0.1073,0.1073,0.1073,-0.1071,-0.1173,-0.1227,-0.1389,-0.1447,-0.1514,-0.1519,-0.1411,-0.1227,-0.0836,-0.0421,-0.0073,0.0428,0.0957,0.1302,0.1331,0.1431,0.1432,0.1484,0.1259,0.1226,0.1195,0.1266,0.151,0.151,0.1762,0.1765,0.1767]}],[{"header":{"parameterUnit":"m.s-1","parameterCategory":2,"la1":30.2991,"la2":30.254,"lo1":-89.0895,"lo2":-89.0444,"dy":0.0017,"dx":0.0017,"nx":28,"ny":28,"refTime":"2025-12-24T03:00:00:Z","depth":"2","parameterNumber":2,"parameterNumberName":"U-component_of_CURRENTS"},"data":[0,0,0,0,0,0,0,0,0,0,0,0,0,0,0,0,0,0,0,0,0,0,0,0,0,0,0,0,0,0,0,0,0,0,0,0,0,0,0,0,0,0,0,0,0,0,0,0,0,0,0,0,0,0,0,0,0,0,-0.1693,-0.1693,0,-0.1721,-0.1721,-0.1721,-0.1723,-0.1723,-0.1723,-0.1723,-0.172,-0.172,-0.172,0,0,0,0,0,0,0,0,0,0,0,0,0,-0.1589,-0.1591,-0.1692,-0.1693,-0.1694,-0.1721,-0.1721,-0.1721,-0.1723,-0.1723,-0.1723,-0.1723,-0.172,-0.172,-0.172,0,0,0,0,0,0,0,0,0,0,0,0,0,-0.1626,-0.1592,-0.1692,-0.17,-0.1701,-0.1721,-0.1721,-0.1721,-0.1723,-0.1723,-0.1723,-0.1723,-0.172,-0.172,-0.172,-0.1724,0,0,-0.1721,-0.1721,0,0,0,0,0,0,0,0,-0.1624,-0.1629,-0.1698,-0.1699,-0.17,-0.172,-0.1684,-0.1721,-0.1723,-0.1712,-0.1723,-0.1723,-0.1719,-0.1719,-0.1722,-0.1724,-0.1724,-0.1721,-0.1721,-0.1721,-0.1721,0,0,0,0,0,0,0,-0.1621,-0.1628,-0.1701,-0.1699,-0.17,-0.1684,-0.1689,-0.1691,-0.1714,-0.1713,-0.1714,-0.1721,-0.1719,-0.1722,-0.1722,-0.1724,-0.1721,-0.1721,-0.1721,-0.1721,-0.1737,-0.1737,0,0,0,0,0,0,-0.1626,-0.1626,-0.1701,-0.1702,-0.1663,-0.1686,-0.1692,-0.1712,-0.1715,-0.1716,-0.1721,-0.1721,-0.1722,-0.1722,-0.1722,-0.1734,-0.1721,-0.1721,-0.1721,-0.1737,-0.1737,-0.1738,0,0,0,0,0,0,-0.1623,-0.1632,-0.1699,-0.1665,-0.1673,-0.1689,-0.1711,-0.1713,-0.172,-0.1721,-0.1721,-0.1727,-0.1722,-0.1722,-0.1729,-0.1733,-0.1721,-0.1721,-0.1736,-0.1737,-0.1737,-0.1753,0,0,0,0,0,0,-0.1621,-0.1632,-0.164,-0.1666,-0.1675,-0.1717,-0.1712,-0.1714,-0.1725,-0.1725,-0.1726,-0.1726,-0.1722,-0.1729,-0.1729,-0.1733,-0.1721,-0.1736,-0.1736,-0.1737,-0.1752,-0.1754,-0.1756,0,0,0,0,0,-0.1617,-0.1633,-0.1641,-0.1649,-0.1689,-0.1718,-0.1721,-0.1729,-0.1726,-0.1733,-0.1733,-0.1726,-0.1734,-0.173,-0.173,-0.1734,-0.1735,-0.1736,-0.1737,-0.1751,-0.1753,-0.1755,0,0,0,0,0,0,-0.1587,-0.1636,-0.1644,-0.1673,-0.1696,-0.1719,-0.1724,-0.1732,-0.1738,-0.1736,-0.1732,-0.1732,-0.1738,-0.1736,-0.1732,-0.1741,-0.1733,-0.1734,-0.1743,-0.1746,-0.1747,-0.1748,-0.1721,0,0,0,0,0,-0.1587,-0.1613,-0.1652,-0.1671,-0.1686,-0.1705,-0.1714,-0.1726,-0.1738,-0.1741,-0.1743,-0.1742,-0.1742,-0.1744,-0.1744,-0.1752,-0.1767,-0.1754,-0.1756,-0.1758,-0.1759,-0.1771,-0.1774,-0.174,-0.174,-0.174,0,0,-0.1575,-0.1607,-0.1619,-0.1665,-0.1681,-0.1709,-0.171,-0.1732,-0.1748,-0.1739,-0.1753,-0.1749,-0.1745,-0.1752,-0.1755,-0.1752,-0.1784,-0.1759,-0.176,-0.176,-0.1772,-0.1776,-0.1778,-0.1741,-0.1741,-0.1741,0,0,-0.1573,-0.1601,-0.1624,-0.1652,-0.1689,-0.1707,-0.1716,-0.1747,-0.1753,-0.1771,-0.1764,-0.1762,-0.177,-0.1765,-0.1763,-0.1776,-0.1791,-0.1779,-0.1791,-0.1803,-0.1806,-0.1809,-0.1869,-0.1876,-0.1782,-0.1782,-0.1782,0,-0.1554,-0.1603,-0.1631,-0.1665,-0.1691,-0.1709,-0.1741,-0.175,-0.1776,-0.1787,-0.1777,-0.1787,-0.1773,-0.1784,-0.1781,-0.1779,-0.1808,-0.1782,-0.1806,-0.1808,-0.1811,-0.1871,-0.1879,-0.1783,-0.1783,-0.1783,-0.1783,0,-0.1578,-0.1616,-0.1632,-0.1687,-0.1713,-0.1744,-0.1774,-0.1791,-0.1799,-0.1811,-0.1824,-0.1808,-0.1814,-0.1807,-0.1793,-0.1805,-0.1831,-0.1805,-0.18,-0.1815,-0.1878,-0.1887,-0.1784,-0.1784,-0.1784,-0.1783,0,0,-0.1537,-0.1632,-0.1637,-0.1679,-0.1735,-0.1765,-0.179,-0.1828,-0.1858,-0.1854,-0.1892,-0.1858,-0.185,-0.1846,-0.1832,-0.1833,-0.1871,-0.1826,-0.1826,-0.1887,-0.1943,-0.1771,-0.1765,-0.1852,-0.1852,-0.1853,-0.1994,0,-0.1547,-0.1623,-0.1665,-0.1729,-0.1775,-0.181,-0.1842,-0.1873,-0.1894,-0.1932,-0.1908,-0.1926,-0.1866,-0.1873,-0.1861,-0.187,-0.1888,-0.1838,-0.1918,-0.1921,-0.1765,-0.1765,-0.1619,-0.1713,-0.2002,-0.2004,-0.2005,0,-0.1552,-0.1614,-0.1679,-0.1783,-0.1806,-0.1836,-0.1907,-0.1939,-0.1982,-0.1999,-0.2001,-0.1998,-0.1993,-0.1942,-0.1955,-0.1931,-0.1935,-0.1939,-0.1944,-0.1777,-0.1761,-0.1737,-0.1717,-0.2018,-0.2017,-0.2016,-0.2015,0,-0.1517,-0.1623,-0.1679,-0.1711,-0.1818,-0.1848,-0.1896,-0.195,-0.1996,-0.2038,-0.2079,-0.2071,-0.2082,-0.2067,-0.2031,-0.2011,-0.2066,-0.2044,-0.191,-0.1903,-0.1786,-0.1762,-0.2064,-0.2064,-0.2063,-0.2063,-0.2063,0,-0.1512,-0.1559,-0.1669,-0.1702,-0.1782,-0.1847,-0.1923,-0.1965,-0.2042,-0.208,-0.2101,-0.2119,-0.2108,-0.2123,-0.2089,-0.2009,-0.2107,-0.191,-0.1906,-0.1788,-0.1764,-0.2022,-0.2016,-0.2068,-0.2067,-0.2066,-0.2065,0,-0.1453,-0.1524,-0.1602,-0.1722,-0.1765,-0.1812,-0.1947,-0.2007,-0.2069,-0.2122,-0.2135,-0.2186,-0.2145,-0.2143,-0.214,-0.2068,-0.2026,-0.1983,-0.1857,-0.1828,-0.1863,-0.1856,-0.1862,-0.1857,-0.1852,-0.1848,-0.1845,0,-0.1431,-0.1461,-0.16,-0.1661,-0.1714,-0.181,-0.1887,-0.1991,-0.2039,-0.2121,-0.2135,-0.2148,-0.2064,-0.2027,-0.1921,-0.1849,-0.1921,-0.1692,-0.1572,-0.1836,-0.1834,-0.1834,-0.1833,-0.1483,-0.1477,-0.1473,-0.1469,0,-0.1383,-0.142,-0.1487,-0.1614,-0.1703,-0.1806,-0.1899,-0.1898,-0.198,-0.2025,-0.2006,-0.1953,-0.19,-0.1702,-0.1611,-0.1552,-0.1673,-0.1582,-0.1919,-0.1502,-0.1473,-0.1472,-0.1485,-0.1426,-0.143,-0.1433,-0.1436,-0.1437,-0.1326,-0.1357,-0.1444,-0.1551,-0.1672,-0.1701,-0.1667,-0.1747,-0.1738,-0.1681,-0.1747,-0.1628,-0.1622,-0.1325,-0.126,-0.1229,-0.1328,-0.1279,-0.1299,-0.1322,-0.1196,-0.1154,-0.1031,-0.1033,-0.1034,-0.1036,-0.1037,0,-0.1243,-0.1292,-0.1392,-0.1484,-0.1557,-0.1657,-0.1626,-0.155,-0.1432,-0.1438,-0.1381,-0.1173,-0.1003,-0.1019,-0.0884,-0.0846,-0.0898,-0.0818,-0.0894,-0.0934,-0.0971,-0.0832,-0.0569,-0.0567,-0.0566,-0.0565,0,0,-0.1197,-0.1228,-0.1278,-0.1333,-0.1412,-0.1365,-0.1269,-0.1182,-0.1113,-0.0979,-0.092,-0.0918,-0.0945,-0.0738,-0.0701,-0.0611,-0.0775,-0.0582,-0.0953,-0.1081,-0.1116,-0.1224,-0.105,0,0,0,0,0]},{"header":{"parameterUnit":"m.s-1","parameterCategory":2,"la1":30.2991,"la2":30.254,"lo1":-89.0895,"lo2":-89.0444,"dy":0.0017,"dx":0.0017,"nx":28,"ny":28,"refTime":"2025-12-24T03:00:00:Z","depth":"2","parameterNumber":3,"parameterNumberName":"V-component_of_CURRENTS"},"data":[0,0,0,0,0,0,0,0,0,0,0,0,0,0,0,0,0,0,0,0,0,0,0,0,0,0,0,0,0,0,0,0,0,0,0,0,0,0,0,0,0,0,0,0,0,0,0,0,0,0,0,0,0,0,0,0,0,0,-0.0005,-0.0005,0,0.0052,0.0053,0.0053,0.0068,0.0068,0.0067,0.0067,0.0074,0.0074,0.0075,0,0,0,0,0,0,0,0,0,0,0,0,0,-0.0041,-0.0041,-0.0005,-0.0005,-0.0004,0.0052,0.0053,0.0053,0.0068,0.0068,0.0067,0.0067,0.0073,0.0074,0.0075,0,0,0,0,0,0,0,0,0,0,0,0,0,-0.0009,-0.0041,-0.0006,0.001,0.0012,0.0052,0.0053,0.0054,0.0068,0.0068,0.0067,0.0067,0.0073,0.0074,0.0075,0.009,0,0,0.0077,0.0077,0,0,0,0,0,0,0,0,-0.0011,-0.0008,0.0007,0.0009,0.0011,0.0052,0.0043,0.0063,0.0068,0.0047,0.0067,0.0067,0.0062,0.0064,0.0077,0.009,0.0091,0.0077,0.0078,0.0078,0.0078,0,0,0,0,0,0,0,-0.0013,-0.001,0.0017,0.0008,0.0011,0.0035,0.0039,0.0047,0.0056,0.0049,0.005,0.0057,0.0063,0.0076,0.0077,0.0091,0.0077,0.0078,0.0078,0.0078,0.0084,0.0084,0,0,0,0,0,0,-0.0023,-0.0012,0.0016,0.0019,-0.0001,0.0036,0.004,0.004,0.0057,0.006,0.0057,0.0057,0.0075,0.0076,0.0077,0.0056,0.0078,0.0079,0.0079,0.0085,0.0084,0.0084,0,0,0,0,0,0,-0.0024,-0.0021,0.0013,0.0005,0.0011,0.0037,0.0037,0.0041,0.0034,0.0064,0.0065,0.0043,0.0074,0.0076,0.0077,0.0058,0.0079,0.008,0.0085,0.0085,0.0084,0.004,0,0,0,0,0,0,-0.0025,-0.0022,-0.004,0.0004,0.0011,0.0021,0.0038,0.0043,0.004,0.004,0.0052,0.0054,0.0074,0.0075,0.0077,0.0059,0.008,0.0085,0.0085,0.0084,0.0042,0.0039,0.0035,0,0,0,0,0,-0.0027,-0.0052,-0.0041,-0.0038,-0.0009,0.002,0.0025,0.0043,0.0039,0.0034,0.0048,0.0052,0.0073,0.0076,0.0078,0.006,0.0086,0.0085,0.0084,0.0044,0.0039,0.0035,0,0,0,0,0,0,-0.008,-0.0051,-0.0039,-0.0055,-0.0025,0.0022,0.0009,0.0028,0.0036,0.0023,0.0052,0.0055,0.0049,0.0062,0.0065,0.0061,0.0078,0.0078,0.0047,0.0043,0.0039,0.0033,0.0081,0,0,0,0,0,-0.0097,-0.0112,-0.0066,-0.0082,-0.0072,-0.0035,-0.0028,-0.0011,0.001,0.0012,0.0025,0.0037,0.0052,0.0052,0.0065,0.0063,0.0091,0.0052,0.0048,0.0045,0.0043,0.0083,0.0083,0.0082,0.0082,0.0082,0,0,-0.0124,-0.0111,-0.0119,-0.0095,-0.0076,-0.0065,-0.0033,-0.0032,-0.0023,0.001,0.0004,0.0022,0.0049,0.0051,0.0048,0.0056,0.006,0.0045,0.0042,0.0041,0.0082,0.0082,0.0083,0.0081,0.0081,0.0082,0,0,-0.0176,-0.017,-0.0194,-0.0171,-0.0147,-0.0113,-0.0117,-0.008,-0.0069,-0.0061,-0.0033,-0.002,-0.0011,0.002,0.0034,0.0019,0.0042,0.0009,-0.0015,0.0023,0.0024,0.0025,0.0059,0.0063,0.0006,0.0006,0.0006,0,-0.0211,-0.0226,-0.0196,-0.0201,-0.0188,-0.0139,-0.0143,-0.0118,-0.0085,-0.0071,-0.0077,-0.0034,-0.0019,0.0011,0.0001,0.0011,0.0032,-0.0003,0.0019,0.002,0.0022,0.0057,0.0063,0.0004,0.0004,0.0004,0.0005,0,-0.0264,-0.0275,-0.0287,-0.0274,-0.0253,-0.0254,-0.02,-0.0186,-0.0171,-0.0136,-0.0115,-0.008,-0.0053,-0.0049,-0.0034,-0.0015,-0.0005,0.0011,0.0029,0.002,0.0057,0.0064,0.0001,0.0002,0.0002,0.0003,0,0,-0.0334,-0.0328,-0.0332,-0.033,-0.0291,-0.0274,-0.0257,-0.0212,-0.0195,-0.0171,-0.0147,-0.0121,-0.01,-0.0082,-0.0055,-0.0027,-0.0003,-0.0018,-0.0015,0.0015,0.0074,0.0086,0.0095,0.0011,0.0011,0.0012,0.0095,0,-0.0383,-0.0416,-0.0388,-0.0398,-0.0401,-0.0339,-0.0317,-0.027,-0.0231,-0.0196,-0.0148,-0.0127,-0.0112,-0.0108,-0.0075,-0.0022,0.0011,-0.0028,0.008,0.0083,0.0094,0.0102,0.0089,0.0162,0.0102,0.0103,0.0104,0,-0.0432,-0.0447,-0.0478,-0.0446,-0.044,-0.0436,-0.0377,-0.0351,-0.0276,-0.0248,-0.0207,-0.0166,-0.0123,-0.0112,-0.002,-0.005,0.0001,0.0047,0.0052,0.0083,0.0107,0.0162,0.0176,0.0115,0.0114,0.0113,0.0112,0,-0.0484,-0.0495,-0.0525,-0.0519,-0.0482,-0.048,-0.0455,-0.0382,-0.0352,-0.029,-0.027,-0.0195,-0.0176,-0.0096,-0.0011,-0.0022,0.01,0.0106,0.0176,0.0178,0.0199,0.0201,0.018,0.018,0.0179,0.0179,0.0179,0,-0.0529,-0.0546,-0.0563,-0.0576,-0.0595,-0.0544,-0.0536,-0.0491,-0.0426,-0.0395,-0.0318,-0.0279,-0.0177,-0.0092,-0.0009,0.0102,0.0106,0.0175,0.0202,0.0183,0.0182,0.0166,0.0163,0.0182,0.0182,0.0181,0.018,0,-0.0568,-0.0581,-0.0616,-0.0621,-0.0625,-0.0643,-0.0606,-0.0585,-0.0524,-0.0483,-0.0472,-0.0352,-0.0245,-0.0116,0.0023,0.0095,0.0211,0.0254,0.0221,0.0242,0.0262,0.0256,0.0334,0.0336,0.0336,0.0337,0.0338,0,-0.0586,-0.0616,-0.0669,-0.0706,-0.0719,-0.0732,-0.0728,-0.0656,-0.0624,-0.0521,-0.0503,-0.0391,-0.0297,-0.0077,0.008,0.0247,0.025,0.0324,0.0305,0.0261,0.0279,0.0271,0.0264,0.0318,0.0319,0.0319,0.032,0,-0.0616,-0.0651,-0.069,-0.0784,-0.0818,-0.0818,-0.081,-0.0786,-0.0691,-0.0652,-0.0567,-0.0488,-0.0267,-0.0079,0.0145,0.0242,0.0294,0.0336,0.0318,0.0273,0.025,0.0266,0.0259,0.0323,0.0323,0.0322,0.0322,0.0322,-0.0644,-0.0694,-0.0772,-0.0857,-0.0898,-0.0899,-0.0876,-0.085,-0.0802,-0.0695,-0.0607,-0.0447,-0.0273,0.0062,0.0202,0.0345,0.0335,0.0374,0.0371,0.0368,0.0343,0.0322,0.0404,0.0404,0.0404,0.0404,0.0404,0,-0.066,-0.0737,-0.083,-0.0914,-0.0966,-0.0968,-0.0919,-0.088,-0.0836,-0.07,-0.0603,-0.0364,-0.0129,0.007,0.0289,0.0395,0.0386,0.0418,0.0383,0.0379,0.0375,0.0349,0.0413,0.0414,0.0414,0.0414,0,0,-0.0674,-0.0765,-0.0831,-0.0956,-0.1014,-0.1,-0.0963,-0.0923,-0.0806,-0.0687,-0.0523,-0.0308,-0.0081,0.0078,0.021,0.0322,0.0321,0.0334,0.0315,0.0252,0.0248,0.0339,0.0293,0,0,0,0,0]}],[{"header":{"parameterUnit":"m.s-1","parameterCategory":2,"la1":30.2991,"la2":30.254,"lo1":-89.0895,"lo2":-89.0444,"dy":0.0017,"dx":0.0017,"nx":28,"ny":28,"refTime":"2025-12-24T03:00:00:Z","depth":"4","parameterNumber":2,"parameterNumberName":"U-component_of_CURRENTS"},"data":[0,0,0,0,0,0,0,0,0,0,0,0,0,0,0,0,0,0,0,0,0,0,0,0,0,0,0,0,0,0,0,0,0,0,0,0,0,0,0,0,0,0,0,0,0,0,0,0,0,0,0,0,0,0,0,0,0,0,-0.0738,-0.0739,0,-0.0778,-0.0778,-0.0779,-0.0803,-0.0804,-0.0804,-0.0804,-0.0844,-0.0845,-0.0846,0,0,0,0,0,0,0,0,0,0,0,0,0,-0.0696,-0.0696,-0.0738,-0.0739,-0.0739,-0.0778,-0.0778,-0.0779,-0.0803,-0.0804,-0.0804,-0.0804,-0.0844,-0.0845,-0.0846,0,0,0,0,0,0,0,0,0,0,0,0,0,-0.0723,-0.0697,-0.0738,-0.0756,-0.0758,-0.0778,-0.0778,-0.0779,-0.0803,-0.0804,-0.0804,-0.0804,-0.0843,-0.0845,-0.0846,-0.0852,0,0,-0.085,-0.0851,0,0,0,0,0,0,0,0,-0.0721,-0.0724,-0.0753,-0.0755,-0.0757,-0.0786,-0.0778,-0.0803,-0.0803,-0.0786,-0.0804,-0.0804,-0.0824,-0.0827,-0.0835,-0.0853,-0.0855,-0.0851,-0.0851,-0.0852,-0.0852,0,0,0,0,0,0,0,-0.0719,-0.0723,-0.0754,-0.0753,-0.0756,-0.0766,-0.077,-0.0783,-0.0804,-0.0788,-0.079,-0.0794,-0.0825,-0.0833,-0.0836,-0.0856,-0.0851,-0.0852,-0.0853,-0.0853,-0.0923,-0.0924,0,0,0,0,0,0,-0.0713,-0.0721,-0.0753,-0.0755,-0.0739,-0.0766,-0.0771,-0.0776,-0.0804,-0.0808,-0.0793,-0.0795,-0.0831,-0.0834,-0.0837,-0.0884,-0.0852,-0.0853,-0.0854,-0.0922,-0.0923,-0.0924,0,0,0,0,0,0,-0.0712,-0.0716,-0.0751,-0.0739,-0.0744,-0.0767,-0.0773,-0.0777,-0.0796,-0.0808,-0.0813,-0.0809,-0.0831,-0.0835,-0.0861,-0.0885,-0.0854,-0.0855,-0.0921,-0.0922,-0.0924,-0.0954,0,0,0,0,0,0,-0.0711,-0.0715,-0.072,-0.0738,-0.0744,-0.0771,-0.0773,-0.0778,-0.0797,-0.0799,-0.0823,-0.0826,-0.0831,-0.0859,-0.0863,-0.0886,-0.0857,-0.0919,-0.0921,-0.0923,-0.0951,-0.0956,-0.096,0,0,0,0,0,-0.0709,-0.0713,-0.072,-0.0724,-0.075,-0.0772,-0.0776,-0.0793,-0.0798,-0.081,-0.0826,-0.0826,-0.0873,-0.0861,-0.0865,-0.0889,-0.0919,-0.0921,-0.0923,-0.095,-0.0955,-0.096,0,0,0,0,0,0,-0.0697,-0.0717,-0.0725,-0.0735,-0.0756,-0.0776,-0.0786,-0.0799,-0.0821,-0.0824,-0.0836,-0.0841,-0.0873,-0.0876,-0.0862,-0.0915,-0.0897,-0.09,-0.0916,-0.0921,-0.0925,-0.0918,-0.0858,0,0,0,0,0,-0.0696,-0.0705,-0.0728,-0.0737,-0.0747,-0.0769,-0.0781,-0.0794,-0.0814,-0.0824,-0.0844,-0.0864,-0.0884,-0.0898,-0.0914,-0.0941,-0.0936,-0.096,-0.0965,-0.0968,-0.0965,-0.0983,-0.0988,-0.0931,-0.0931,-0.0931,0,0,-0.0694,-0.0705,-0.0711,-0.0735,-0.0751,-0.0771,-0.0777,-0.0798,-0.082,-0.0824,-0.0862,-0.0879,-0.0894,-0.0927,-0.0942,-0.0933,-0.0982,-0.0971,-0.0974,-0.0969,-0.0986,-0.0991,-0.0996,-0.0933,-0.0933,-0.0932,0,0,-0.0691,-0.0705,-0.0712,-0.0732,-0.0757,-0.0775,-0.0784,-0.0815,-0.0835,-0.0868,-0.088,-0.0908,-0.0941,-0.0959,-0.097,-0.1006,-0.1002,-0.1019,-0.1037,-0.1054,-0.1059,-0.1063,-0.1061,-0.1064,-0.1023,-0.1023,-0.1023,0,-0.0687,-0.07,-0.0719,-0.0733,-0.0754,-0.0779,-0.0799,-0.0822,-0.0861,-0.0882,-0.0883,-0.0941,-0.0955,-0.0993,-0.101,-0.1016,-0.102,-0.1016,-0.1059,-0.1063,-0.1067,-0.1063,-0.1067,-0.1025,-0.1024,-0.1024,-0.1024,0,-0.0688,-0.0706,-0.0713,-0.0743,-0.077,-0.0789,-0.0826,-0.0856,-0.0883,-0.0908,-0.0954,-0.0974,-0.1008,-0.1022,-0.1028,-0.1069,-0.1061,-0.1061,-0.1044,-0.1074,-0.1069,-0.1072,-0.1027,-0.1026,-0.1026,-0.1025,0,0,-0.0659,-0.0704,-0.0708,-0.0729,-0.0777,-0.0799,-0.0842,-0.0889,-0.092,-0.0955,-0.0995,-0.1032,-0.1047,-0.106,-0.1075,-0.1092,-0.1121,-0.1092,-0.1092,-0.1085,-0.1151,-0.1092,-0.109,-0.1134,-0.1135,-0.1136,-0.1135,0,-0.0655,-0.0679,-0.0712,-0.0752,-0.0772,-0.0821,-0.0862,-0.091,-0.095,-0.0997,-0.1022,-0.1062,-0.1061,-0.1083,-0.1101,-0.1126,-0.1132,-0.112,-0.1127,-0.1126,-0.1067,-0.1092,-0.1139,-0.1138,-0.1138,-0.1139,-0.1139,0,-0.0641,-0.0664,-0.0695,-0.0762,-0.0778,-0.0811,-0.0885,-0.0927,-0.0994,-0.1026,-0.1067,-0.1091,-0.1133,-0.112,-0.1158,-0.1156,-0.1152,-0.1156,-0.1156,-0.1091,-0.1073,-0.1103,-0.1144,-0.1144,-0.1143,-0.1143,-0.1143,0,-0.0599,-0.0655,-0.0681,-0.0701,-0.0777,-0.0811,-0.0859,-0.0933,-0.0974,-0.1045,-0.1081,-0.1126,-0.1158,-0.1169,-0.1179,-0.1179,-0.1204,-0.1204,-0.1137,-0.1132,-0.1171,-0.1166,-0.1209,-0.1209,-0.1209,-0.1209,-0.1209,0,-0.0574,-0.0599,-0.0664,-0.0676,-0.0718,-0.0791,-0.0849,-0.0898,-0.098,-0.103,-0.1091,-0.1125,-0.1175,-0.1197,-0.1191,-0.1172,-0.1212,-0.1138,-0.1131,-0.1183,-0.118,-0.1172,-0.1168,-0.1209,-0.1209,-0.1209,-0.1209,0,-0.0521,-0.0563,-0.059,-0.0665,-0.0694,-0.0722,-0.0828,-0.0871,-0.0959,-0.1026,-0.1051,-0.1138,-0.1172,-0.1193,-0.1213,-0.1184,-0.117,-0.1143,-0.1186,-0.1182,-0.1083,-0.108,-0.1081,-0.1078,-0.1077,-0.1075,-0.1074,0,-0.0499,-0.0506,-0.0559,-0.0565,-0.0598,-0.0664,-0.0712,-0.0833,-0.0892,-0.1021,-0.1048,-0.1113,-0.1156,-0.1132,-0.1162,-0.114,-0.1122,-0.1107,-0.1102,-0.1078,-0.1072,-0.1072,-0.1072,-0.1071,-0.1071,-0.1071,-0.107,0,-0.0455,-0.0465,-0.0475,-0.0478,-0.0519,-0.0589,-0.0678,-0.0722,-0.0872,-0.0952,-0.1017,-0.1042,-0.1078,-0.1093,-0.1079,-0.1062,-0.1123,-0.109,-0.1093,-0.1088,-0.1067,-0.1062,-0.1064,-0.1064,-0.1065,-0.1066,-0.1066,0,-0.0411,-0.0388,-0.0385,-0.0382,-0.0427,-0.0499,-0.0575,-0.0671,-0.0757,-0.092,-0.0929,-0.0999,-0.1065,-0.1051,-0.1038,-0.1022,-0.1014,-0.0986,-0.0995,-0.1001,-0.0977,-0.0938,-0.089,0,0,0,0,0,-0.0371,-0.0321,-0.0297,-0.0302,-0.0343,-0.0386,-0.0539,-0.0635,-0.0791,-0.081,-0.0877,-0.0904,-0.0923,-0.0957,-0.0923,-0.1,-0.1009,-0.0959,-0.0979,-0.1032,-0.1038,-0.1018,0,0,0,0,0,0,-0.0334,-0.0302,-0.0263,-0.0236,-0.0226,-0.0311,-0.0413,-0.0535,-0.0581,-0.0713,-0.0726,-0.0814,-0.0838,-0.0887,-0.0875,-0.0888,-0.0883,-0.1001,-0.0999,-0.1028,-0.1034,-0.1039,-0.1021,0,0,0,0,0]},{"header":{"parameterUnit":"m.s-1","parameterCategory":2,"la1":30.2991,"la2":30.254,"lo1":-89.0895,"lo2":-89.0444,"dy":0.0017,"dx":0.0017,"nx":28,"ny":28,"refTime":"2025-12-24T03:00:00:Z","depth":"4","parameterNumber":3,"parameterNumberName":"V-component_of_CURRENTS"},"data":[0,0,0,0,0,0,0,0,0,0,0,0,0,0,0,0,0,0,0,0,0,0,0,0,0,0,0,0,0,0,0,0,0,0,0,0,0,0,0,0,0,0,0,0,0,0,0,0,0,0,0,0,0,0,0,0,0,0,-0.0057,-0.0057,0,-0.0053,-0.0053,-0.0053,-0.0038,-0.0038,-0.0038,-0.0037,-0.0002,-0.0001,-0.0001,0,0,0,0,0,0,0,0,0,0,0,0,0,-0.0028,-0.0028,-0.0057,-0.0057,-0.0057,-0.0053,-0.0053,-0.0053,-0.0038,-0.0038,-0.0038,-0.0037,-0.0002,-0.0001,-0.0001,0,0,0,0,0,0,0,0,0,0,0,0,0,-0.0034,-0.0029,-0.0057,-0.0049,-0.0048,-0.0053,-0.0053,-0.0053,-0.0038,-0.0038,-0.0037,-0.0037,-0.0002,-0.0001,-0.0001,-0.0006,0,0,0.0002,0.0003,0,0,0,0,0,0,0,0,-0.0034,-0.0035,-0.005,-0.0049,-0.0049,-0.0045,-0.003,-0.0036,-0.0039,-0.0042,-0.0037,-0.0037,-0.0014,-0.0012,-0.0013,-0.0004,-0.0003,0.0002,0.0003,0.0003,0.0003,0,0,0,0,0,0,0,-0.0033,-0.0035,-0.0056,-0.005,-0.0049,-0.0037,-0.0038,-0.0031,-0.0031,-0.0042,-0.0041,-0.004,-0.0013,-0.0014,-0.0012,-0.0002,0.0002,0.0003,0.0004,0.0004,0.0014,0.0014,0,0,0,0,0,0,-0.0035,-0.0035,-0.0056,-0.0056,-0.0039,-0.0038,-0.0039,-0.0047,-0.0032,-0.0029,-0.0041,-0.004,-0.0016,-0.0013,-0.0011,-0.0016,0.0003,0.0004,0.0005,0.0014,0.0014,0.0014,0,0,0,0,0,0,-0.0035,-0.0038,-0.0056,-0.0044,-0.0046,-0.004,-0.0049,-0.0047,-0.0047,-0.0031,-0.0027,-0.0041,-0.0015,-0.0012,-0.0008,-0.0014,0.0004,0.0005,0.0015,0.0014,0.0014,-0.0026,0,0,0,0,0,0,-0.0034,-0.0038,-0.0044,-0.0045,-0.0046,-0.0067,-0.0049,-0.0048,-0.0047,-0.0046,-0.003,-0.0027,-0.0015,-0.0009,-0.0007,-0.0013,0.0006,0.0015,0.0015,0.0014,-0.0024,-0.0028,-0.0031,0,0,0,0,0,-0.0033,-0.0049,-0.0045,-0.0047,-0.0056,-0.0068,-0.0068,-0.0061,-0.0048,-0.0056,-0.0042,-0.0027,-0.0011,-0.0009,-0.0006,-0.0012,0.0015,0.0015,0.0014,-0.0023,-0.0027,-0.0031,0,0,0,0,0,0,-0.0039,-0.0049,-0.0044,-0.0061,-0.0066,-0.0065,-0.0071,-0.0063,-0.0059,-0.0054,-0.0034,-0.003,-0.0028,-0.0014,-0.0013,-0.001,0.0006,0.0006,-0.0023,-0.0027,-0.003,-0.0034,0.0007,0,0,0,0,0,-0.0043,-0.0058,-0.0062,-0.0075,-0.0078,-0.0073,-0.0075,-0.0072,-0.0068,-0.0066,-0.0053,-0.0038,-0.003,-0.0024,-0.0016,-0.0016,0.0013,-0.0016,-0.0019,-0.0022,-0.0022,0.0017,0.0017,0.0012,0.0012,0.0012,0,0,-0.0048,-0.0055,-0.0063,-0.0077,-0.0078,-0.0095,-0.0074,-0.0083,-0.0093,-0.0062,-0.0069,-0.0051,-0.0032,-0.0033,-0.0031,-0.0022,-0.0005,-0.0022,-0.0025,-0.0024,0.0016,0.0017,0.0017,0.0011,0.0011,0.0011,0,0,-0.0072,-0.0073,-0.0095,-0.0104,-0.0111,-0.0111,-0.0114,-0.0115,-0.0111,-0.0117,-0.0093,-0.008,-0.0071,-0.0057,-0.0048,-0.0063,-0.0025,-0.0058,-0.0075,-0.0038,-0.0037,-0.0036,0.0001,0.0005,-0.0057,-0.0058,-0.0058,0,-0.0075,-0.0106,-0.0103,-0.0127,-0.0136,-0.012,-0.0145,-0.0142,-0.014,-0.0132,-0.0126,-0.0098,-0.0084,-0.0072,-0.0078,-0.0071,-0.0039,-0.0064,-0.0042,-0.004,-0.0038,-0.0001,0.0005,-0.006,-0.0059,-0.0059,-0.0059,0,-0.0117,-0.0141,-0.0155,-0.0181,-0.019,-0.0208,-0.0205,-0.0205,-0.0193,-0.0182,-0.0167,-0.0146,-0.0124,-0.0119,-0.0105,-0.0085,-0.0064,-0.0052,-0.0033,-0.004,-0.0,0.0006,-0.0062,-0.0062,-0.0061,-0.0061,0,0,-0.0127,-0.0176,-0.018,-0.0202,-0.0219,-0.0232,-0.0243,-0.0245,-0.024,-0.0228,-0.0216,-0.02,-0.017,-0.0157,-0.0131,-0.0102,-0.0065,-0.0073,-0.007,-0.0037,0.0024,0.0009,0.0015,-0.0043,-0.0042,-0.0042,0.0046,0,-0.0159,-0.0217,-0.023,-0.0277,-0.0305,-0.0296,-0.0308,-0.0302,-0.0282,-0.0265,-0.0227,-0.021,-0.0189,-0.0174,-0.0141,-0.0079,-0.0049,-0.009,0.0027,0.0031,0.0017,0.0021,-0.0039,0.0051,0.0053,0.0054,0.0055,0,-0.0192,-0.0229,-0.0286,-0.0326,-0.0335,-0.0358,-0.0358,-0.0366,-0.0331,-0.0312,-0.0276,-0.0239,-0.0193,-0.0177,-0.0076,-0.0098,-0.0044,0.0,0.0005,0.0009,0.0027,0.0062,0.0068,0.0067,0.0066,0.0065,0.0064,0,-0.0197,-0.0262,-0.0309,-0.0326,-0.0369,-0.0383,-0.0394,-0.0376,-0.0375,-0.0333,-0.0314,-0.0252,-0.0213,-0.0139,-0.005,-0.0054,0.0065,0.0072,0.0108,0.0108,0.0114,0.0112,0.0136,0.0136,0.0136,0.0136,0.0136,0,-0.022,-0.0255,-0.0319,-0.0344,-0.0393,-0.0406,-0.0428,-0.0423,-0.0403,-0.0392,-0.0336,-0.0303,-0.02,-0.012,-0.0046,0.0055,0.0073,0.0107,0.0129,0.0095,0.0089,0.0119,0.0116,0.0139,0.0139,0.0138,0.0137,0,-0.0212,-0.0257,-0.0318,-0.038,-0.0401,-0.0432,-0.0464,-0.047,-0.0445,-0.0425,-0.0413,-0.0326,-0.022,-0.0122,0.0009,0.006,0.0152,0.0179,0.0136,0.0155,0.017,0.0164,0.0233,0.0233,0.0233,0.0234,0.0234,0,-0.0215,-0.0247,-0.0339,-0.0384,-0.0417,-0.0463,-0.0489,-0.0492,-0.0491,-0.0435,-0.0422,-0.0323,-0.0256,-0.0073,0.0022,0.0161,0.017,0.0218,0.0187,0.0165,0.0181,0.0174,0.0168,0.0234,0.0234,0.0234,0.0234,0,-0.0217,-0.0251,-0.0301,-0.0391,-0.0446,-0.0502,-0.0534,-0.0538,-0.0523,-0.05,-0.0414,-0.0319,-0.0201,-0.007,0.0035,0.013,0.0188,0.022,0.022,0.0192,0.0167,0.0181,0.0174,0.0235,0.0234,0.0234,0.0234,0,-0.0213,-0.0247,-0.0314,-0.0386,-0.0468,-0.0523,-0.0543,-0.0536,-0.0531,-0.0469,-0.0437,-0.0308,-0.0229,-0.0085,0.0013,0.0103,0.012,0.0142,0.0147,0.0147,0.0086,0.004,0.009,0,0,0,0,0,-0.0205,-0.0232,-0.0302,-0.0393,-0.0476,-0.0515,-0.0564,-0.0572,-0.0555,-0.0498,-0.0467,-0.0357,-0.0194,-0.0116,-0.0028,-0.0001,0.0121,0.0103,0.0145,0.0237,0.0237,0.0176,0,0,0,0,0,0,-0.0204,-0.0256,-0.0286,-0.0377,-0.0436,-0.0517,-0.0552,-0.0547,-0.0512,-0.0478,-0.0388,-0.0333,-0.0176,-0.0232,-0.0019,0.0008,0.0044,0.0182,0.0184,0.0238,0.0237,0.0237,0.0174,0,0,0,0,0]}]]